Year,Month,Day,Hour,Minute,Value (Times are PST for temperature in C)
2016,06,15,00,00,9.10
2016,06,15,00,01,9.10
2016,06,15,00,02,9.10
2016,06,15,00,03,9.10
2016,06,15,00,04,9.00
2016,06,15,00,05,9.00
2016,06,15,00,06,9.00
2016,06,15,00,07,9.00
2016,06,15,00,08,8.90
2016,06,15,00,09,8.90
2016,06,15,00,10,8.90
2016,06,15,00,11,8.90
2016,06,15,00,12,8.90
2016,06,15,00,13,8.90
2016,06,15,00,14,8.80
2016,06,15,00,15,8.80
2016,06,15,00,16,8.80
2016,06,15,00,17,8.70
2016,06,15,00,18,8.60
2016,06,15,00,19,8.60
2016,06,15,00,20,8.50
2016,06,15,00,21,8.40
2016,06,15,00,22,8.40
2016,06,15,00,23,8.30
2016,06,15,00,24,8.30
2016,06,15,00,25,8.30
2016,06,15,00,26,8.30
2016,06,15,00,27,8.30
2016,06,15,00,28,8.30
2016,06,15,00,29,8.30
2016,06,15,00,30,8.30
2016,06,15,00,31,8.30
2016,06,15,00,32,8.40
2016,06,15,00,33,8.40
2016,06,15,00,34,8.30
2016,06,15,00,35,8.30
2016,06,15,00,36,8.30
2016,06,15,00,37,8.30
2016,06,15,00,38,8.30
2016,06,15,00,39,8.30
2016,06,15,00,40,8.30
2016,06,15,00,41,8.40
2016,06,15,00,42,8.50
2016,06,15,00,43,8.60
2016,06,15,00,44,8.60
2016,06,15,00,45,8.70
2016,06,15,00,46,8.70
2016,06,15,00,47,8.80
2016,06,15,00,48,8.80
2016,06,15,00,49,8.80
2016,06,15,00,50,8.90
2016,06,15,00,51,8.90
2016,06,15,00,52,8.90
2016,06,15,00,53,8.90
2016,06,15,00,54,8.90
2016,06,15,00,55,8.90
2016,06,15,00,56,8.80
2016,06,15,00,57,8.80
2016,06,15,00,58,8.80
2016,06,15,00,59,8.80
2016,06,15,01,00,8.70
2016,06,15,01,01,8.70
2016,06,15,01,02,8.60
2016,06,15,01,03,8.60
2016,06,15,01,04,8.60
2016,06,15,01,05,8.50
2016,06,15,01,06,8.50
2016,06,15,01,07,8.50
2016,06,15,01,08,8.40
2016,06,15,01,09,8.40
2016,06,15,01,10,8.30
2016,06,15,01,11,8.30
2016,06,15,01,12,8.30
2016,06,15,01,13,8.20
2016,06,15,01,14,8.20
2016,06,15,01,15,8.20
2016,06,15,01,16,8.10
2016,06,15,01,17,8.10
2016,06,15,01,18,8.00
2016,06,15,01,19,8.00
2016,06,15,01,20,8.00
2016,06,15,01,21,7.90
2016,06,15,01,22,7.90
2016,06,15,01,23,7.90
2016,06,15,01,24,7.80
2016,06,15,01,25,7.80
2016,06,15,01,26,7.80
2016,06,15,01,27,7.80
2016,06,15,01,28,7.80
2016,06,15,01,29,7.80
2016,06,15,01,30,7.80
2016,06,15,01,31,7.80
2016,06,15,01,32,7.70
2016,06,15,01,33,7.70
2016,06,15,01,34,7.70
2016,06,15,01,35,7.70
2016,06,15,01,36,7.80
2016,06,15,01,37,7.80
2016,06,15,01,38,7.80
2016,06,15,01,39,7.80
2016,06,15,01,40,7.80
2016,06,15,01,41,7.80
2016,06,15,01,42,7.80
2016,06,15,01,43,7.80
2016,06,15,01,44,7.80
2016,06,15,01,45,7.70
2016,06,15,01,46,7.70
2016,06,15,01,47,7.70
2016,06,15,01,48,7.70
2016,06,15,01,49,7.70
2016,06,15,01,50,7.70
2016,06,15,01,51,7.70
2016,06,15,01,52,7.70
2016,06,15,01,53,7.70
2016,06,15,01,54,7.80
2016,06,15,01,55,7.80
2016,06,15,01,56,7.80
2016,06,15,01,57,7.80
2016,06,15,01,58,7.80
2016,06,15,01,59,7.80
2016,06,15,02,00,7.80
2016,06,15,02,01,7.80
2016,06,15,02,02,7.80
2016,06,15,02,03,7.80
2016,06,15,02,04,7.80
2016,06,15,02,05,7.70
2016,06,15,02,06,7.70
2016,06,15,02,07,7.70
2016,06,15,02,08,7.70
2016,06,15,02,09,7.70
2016,06,15,02,10,7.70
2016,06,15,02,11,7.70
2016,06,15,02,12,7.70
2016,06,15,02,13,7.70
2016,06,15,02,14,7.70
2016,06,15,02,15,7.70
2016,06,15,02,16,7.70
2016,06,15,02,17,7.70
2016,06,15,02,18,7.80
2016,06,15,02,19,7.80
2016,06,15,02,20,7.80
2016,06,15,02,21,7.80
2016,06,15,02,22,7.90
2016,06,15,02,23,7.90
2016,06,15,02,24,7.90
2016,06,15,02,25,7.90
2016,06,15,02,26,7.90
2016,06,15,02,27,7.90
2016,06,15,02,28,7.90
2016,06,15,02,29,8.00
2016,06,15,02,30,8.00
2016,06,15,02,31,8.10
2016,06,15,02,32,8.10
2016,06,15,02,33,8.10
2016,06,15,02,34,8.20
2016,06,15,02,35,8.30
2016,06,15,02,36,8.30
2016,06,15,02,37,8.40
2016,06,15,02,38,8.40
2016,06,15,02,39,8.50
2016,06,15,02,40,8.50
2016,06,15,02,41,8.60
2016,06,15,02,42,8.70
2016,06,15,02,43,8.80
2016,06,15,02,44,8.90
2016,06,15,02,45,9.00
2016,06,15,02,46,9.10
2016,06,15,02,47,9.10
2016,06,15,02,48,9.20
2016,06,15,02,49,9.20
2016,06,15,02,50,9.30
2016,06,15,02,51,9.30
2016,06,15,02,52,9.30
2016,06,15,02,53,9.40
2016,06,15,02,54,9.40
2016,06,15,02,55,9.40
2016,06,15,02,56,9.50
2016,06,15,02,57,9.50
2016,06,15,02,58,9.50
2016,06,15,02,59,9.50
2016,06,15,03,00,9.50
2016,06,15,03,01,9.50
2016,06,15,03,02,9.50
2016,06,15,03,03,9.40
2016,06,15,03,04,9.40
2016,06,15,03,05,9.40
2016,06,15,03,06,9.30
2016,06,15,03,07,9.20
2016,06,15,03,08,9.10
2016,06,15,03,09,9.00
2016,06,15,03,10,8.90
2016,06,15,03,11,8.70
2016,06,15,03,12,8.60
2016,06,15,03,13,8.50
2016,06,15,03,14,8.40
2016,06,15,03,15,8.20
2016,06,15,03,16,8.20
2016,06,15,03,17,8.20
2016,06,15,03,18,8.40
2016,06,15,03,19,8.40
2016,06,15,03,20,8.40
2016,06,15,03,21,8.40
2016,06,15,03,22,8.40
2016,06,15,03,23,8.50
2016,06,15,03,24,8.50
2016,06,15,03,25,8.40
2016,06,15,03,26,8.40
2016,06,15,03,27,8.30
2016,06,15,03,28,8.30
2016,06,15,03,29,8.30
2016,06,15,03,30,8.30
2016,06,15,03,31,8.20
2016,06,15,03,32,8.30
2016,06,15,03,33,8.30
2016,06,15,03,34,8.30
2016,06,15,03,35,8.20
2016,06,15,03,36,8.20
2016,06,15,03,37,8.20
2016,06,15,03,38,8.20
2016,06,15,03,39,8.20
2016,06,15,03,40,8.20
2016,06,15,03,41,8.20
2016,06,15,03,42,8.30
2016,06,15,03,43,8.40
2016,06,15,03,44,8.50
2016,06,15,03,45,8.60
2016,06,15,03,46,8.60
2016,06,15,03,47,8.60
2016,06,15,03,48,8.60
2016,06,15,03,49,8.60
2016,06,15,03,50,8.70
2016,06,15,03,51,8.70
2016,06,15,03,52,8.70
2016,06,15,03,53,8.70
2016,06,15,03,54,8.70
2016,06,15,03,55,8.70
2016,06,15,03,56,8.70
2016,06,15,03,57,8.70
2016,06,15,03,58,8.70
2016,06,15,03,59,8.70
2016,06,15,04,00,8.70
2016,06,15,04,01,8.70
2016,06,15,04,02,8.70
2016,06,15,04,03,8.70
2016,06,15,04,04,8.80
2016,06,15,04,05,8.90
2016,06,15,04,06,8.90
2016,06,15,04,07,9.00
2016,06,15,04,08,9.00
2016,06,15,04,09,9.00
2016,06,15,04,10,9.10
2016,06,15,04,11,9.10
2016,06,15,04,12,9.20
2016,06,15,04,13,9.20
2016,06,15,04,14,9.20
2016,06,15,04,15,9.20
2016,06,15,04,16,9.20
2016,06,15,04,17,9.30
2016,06,15,04,18,9.30
2016,06,15,04,19,9.30
2016,06,15,04,20,9.30
2016,06,15,04,21,9.30
2016,06,15,04,22,9.30
2016,06,15,04,23,9.30
2016,06,15,04,24,9.40
2016,06,15,04,25,9.40
2016,06,15,04,26,9.50
2016,06,15,04,27,9.60
2016,06,15,04,28,9.60
2016,06,15,04,29,9.70
2016,06,15,04,30,9.70
2016,06,15,04,31,9.70
2016,06,15,04,32,9.70
2016,06,15,04,33,9.70
2016,06,15,04,34,9.70
2016,06,15,04,35,9.70
2016,06,15,04,36,9.70
2016,06,15,04,37,9.60
2016,06,15,04,38,9.60
2016,06,15,04,39,9.60
2016,06,15,04,40,9.60
2016,06,15,04,41,9.60
2016,06,15,04,42,9.60
2016,06,15,04,43,9.60
2016,06,15,04,44,9.60
2016,06,15,04,45,9.60
2016,06,15,04,46,9.50
2016,06,15,04,47,9.50
2016,06,15,04,48,9.50
2016,06,15,04,49,9.60
2016,06,15,04,50,9.60
2016,06,15,04,51,9.60
2016,06,15,04,52,9.70
2016,06,15,04,53,9.70
2016,06,15,04,54,9.70
2016,06,15,04,55,9.60
2016,06,15,04,56,9.60
2016,06,15,04,57,9.60
2016,06,15,04,58,9.50
2016,06,15,04,59,9.40
2016,06,15,05,00,9.40
2016,06,15,05,01,9.40
2016,06,15,05,02,9.40
2016,06,15,05,03,9.40
2016,06,15,05,04,9.40
2016,06,15,05,05,9.30
2016,06,15,05,06,9.20
2016,06,15,05,07,9.20
2016,06,15,05,08,9.10
2016,06,15,05,09,9.10
2016,06,15,05,10,9.10
2016,06,15,05,11,9.10
2016,06,15,05,12,9.00
2016,06,15,05,13,9.00
2016,06,15,05,14,8.90
2016,06,15,05,15,8.90
2016,06,15,05,16,9.00
2016,06,15,05,17,9.00
2016,06,15,05,18,9.00
2016,06,15,05,19,9.00
2016,06,15,05,20,8.90
2016,06,15,05,21,8.90
2016,06,15,05,22,8.90
2016,06,15,05,23,9.00
2016,06,15,05,24,9.10
2016,06,15,05,25,9.10
2016,06,15,05,26,9.20
2016,06,15,05,27,9.20
2016,06,15,05,28,9.20
2016,06,15,05,29,9.20
2016,06,15,05,30,9.30
2016,06,15,05,31,9.30
2016,06,15,05,32,9.30
2016,06,15,05,33,9.40
2016,06,15,05,34,9.40
2016,06,15,05,35,9.50
2016,06,15,05,36,9.50
2016,06,15,05,37,9.50
2016,06,15,05,38,9.60
2016,06,15,05,39,9.60
2016,06,15,05,40,9.60
2016,06,15,05,41,9.50
2016,06,15,05,42,9.40
2016,06,15,05,43,9.30
2016,06,15,05,44,9.20
2016,06,15,05,45,9.10
2016,06,15,05,46,9.00
2016,06,15,05,47,9.00
2016,06,15,05,48,8.90
2016,06,15,05,49,8.90
2016,06,15,05,50,8.90
2016,06,15,05,51,8.90
2016,06,15,05,52,9.00
2016,06,15,05,53,9.10
2016,06,15,05,54,9.20
2016,06,15,05,55,9.30
2016,06,15,05,56,9.30
2016,06,15,05,57,9.30
2016,06,15,05,58,9.40
2016,06,15,05,59,9.40
2016,06,15,06,00,9.50
2016,06,15,06,01,9.60
2016,06,15,06,02,9.70
2016,06,15,06,03,9.80
2016,06,15,06,04,9.80
2016,06,15,06,05,9.80
2016,06,15,06,06,9.70
2016,06,15,06,07,9.60
2016,06,15,06,08,9.50
2016,06,15,06,09,9.40
2016,06,15,06,10,9.30
2016,06,15,06,11,9.30
2016,06,15,06,12,9.20
2016,06,15,06,13,9.20
2016,06,15,06,14,9.10
2016,06,15,06,15,9.10
2016,06,15,06,16,9.10
2016,06,15,06,17,9.10
2016,06,15,06,18,9.10
2016,06,15,06,19,9.10
2016,06,15,06,20,9.10
2016,06,15,06,21,9.10
2016,06,15,06,22,9.00
2016,06,15,06,23,9.00
2016,06,15,06,24,9.00
2016,06,15,06,25,9.00
2016,06,15,06,26,9.00
2016,06,15,06,27,9.00
2016,06,15,06,28,9.00
2016,06,15,06,29,9.00
2016,06,15,06,30,9.00
2016,06,15,06,31,9.00
2016,06,15,06,32,9.10
2016,06,15,06,33,9.10
2016,06,15,06,34,9.10
2016,06,15,06,35,9.10
2016,06,15,06,36,9.10
2016,06,15,06,37,9.10
2016,06,15,06,38,9.10
2016,06,15,06,39,9.20
2016,06,15,06,40,9.20
2016,06,15,06,41,9.30
2016,06,15,06,42,9.30
2016,06,15,06,43,9.40
2016,06,15,06,44,9.40
2016,06,15,06,45,9.40
2016,06,15,06,46,9.50
2016,06,15,06,47,9.50
2016,06,15,06,48,9.60
2016,06,15,06,49,9.60
2016,06,15,06,50,9.70
2016,06,15,06,51,9.70
2016,06,15,06,52,9.70
2016,06,15,06,53,9.70
2016,06,15,06,54,9.70
2016,06,15,06,55,9.70
2016,06,15,06,56,9.70
2016,06,15,06,57,9.70
2016,06,15,06,58,9.80
2016,06,15,06,59,9.80
2016,06,15,07,00,9.90
2016,06,15,07,01,9.90
2016,06,15,07,02,9.90
2016,06,15,07,03,9.90
2016,06,15,07,04,9.90
2016,06,15,07,05,9.90
2016,06,15,07,06,9.90
2016,06,15,07,07,10.00
2016,06,15,07,08,10.00
2016,06,15,07,09,10.10
2016,06,15,07,10,10.10
2016,06,15,07,11,10.10
2016,06,15,07,12,10.20
2016,06,15,07,13,10.20
2016,06,15,07,14,10.20
2016,06,15,07,15,10.30
2016,06,15,07,16,10.30
2016,06,15,07,17,10.40
2016,06,15,07,18,10.50
2016,06,15,07,19,10.50
2016,06,15,07,20,10.60
2016,06,15,07,21,10.70
2016,06,15,07,22,10.70
2016,06,15,07,23,10.80
2016,06,15,07,24,10.80
2016,06,15,07,25,10.80
2016,06,15,07,26,10.90
2016,06,15,07,27,10.90
2016,06,15,07,28,10.90
2016,06,15,07,29,11.00
2016,06,15,07,30,11.00
2016,06,15,07,31,11.00
2016,06,15,07,32,11.00
2016,06,15,07,33,11.00
2016,06,15,07,34,11.00
2016,06,15,07,35,11.00
2016,06,15,07,36,11.00
2016,06,15,07,37,11.10
2016,06,15,07,38,11.00
2016,06,15,07,39,11.00
2016,06,15,07,40,11.00
2016,06,15,07,41,10.90
2016,06,15,07,42,10.90
2016,06,15,07,43,10.90
2016,06,15,07,44,10.80
2016,06,15,07,45,10.90
2016,06,15,07,46,10.80
2016,06,15,07,47,10.90
2016,06,15,07,48,10.90
2016,06,15,07,49,10.90
2016,06,15,07,50,10.90
2016,06,15,07,51,10.90
2016,06,15,07,52,11.00
2016,06,15,07,53,11.00
2016,06,15,07,54,11.10
2016,06,15,07,55,11.10
2016,06,15,07,56,11.10
2016,06,15,07,57,11.20
2016,06,15,07,58,11.30
2016,06,15,07,59,11.40
2016,06,15,08,00,11.50
2016,06,15,08,01,11.60
2016,06,15,08,02,11.80
2016,06,15,08,03,11.90
2016,06,15,08,04,12.00
2016,06,15,08,05,12.10
2016,06,15,08,06,12.10
2016,06,15,08,07,12.10
2016,06,15,08,08,12.10
2016,06,15,08,09,12.10
2016,06,15,08,10,12.10
2016,06,15,08,11,12.10
2016,06,15,08,12,12.00
2016,06,15,08,13,12.00
2016,06,15,08,14,12.00
2016,06,15,08,15,12.10
2016,06,15,08,16,12.20
2016,06,15,08,17,12.20
2016,06,15,08,18,12.30
2016,06,15,08,19,12.30
2016,06,15,08,20,12.40
2016,06,15,08,21,12.30
2016,06,15,08,22,12.20
2016,06,15,08,23,12.10
2016,06,15,08,24,11.90
2016,06,15,08,25,11.80
2016,06,15,08,26,11.80
2016,06,15,08,27,11.80
2016,06,15,08,28,11.80
2016,06,15,08,29,11.40
2016,06,15,08,30,11.40
2016,06,15,08,31,11.30
2016,06,15,08,32,11.40
2016,06,15,08,33,11.40
2016,06,15,08,34,11.40
2016,06,15,08,35,11.50
2016,06,15,08,36,11.50
2016,06,15,08,37,11.40
2016,06,15,08,38,11.40
2016,06,15,08,39,11.30
2016,06,15,08,40,11.30
2016,06,15,08,41,11.30
2016,06,15,08,42,11.20
2016,06,15,08,43,11.20
2016,06,15,08,44,11.10
2016,06,15,08,45,11.00
2016,06,15,08,46,11.00
2016,06,15,08,47,11.00
2016,06,15,08,48,10.90
2016,06,15,08,49,10.80
2016,06,15,08,50,10.80
2016,06,15,08,51,10.80
2016,06,15,08,52,10.70
2016,06,15,08,53,10.70
2016,06,15,08,54,10.70
2016,06,15,08,55,10.70
2016,06,15,08,56,10.70
2016,06,15,08,57,10.70
2016,06,15,08,58,10.70
2016,06,15,08,59,10.70
2016,06,15,09,00,10.80
2016,06,15,09,01,10.80
2016,06,15,09,02,10.80
2016,06,15,09,03,10.80
2016,06,15,09,04,10.90
2016,06,15,09,05,10.90
2016,06,15,09,06,11.00
2016,06,15,09,07,11.00
2016,06,15,09,08,11.00
2016,06,15,09,09,11.10
2016,06,15,09,10,11.20
2016,06,15,09,11,11.20
2016,06,15,09,12,11.20
2016,06,15,09,13,11.30
2016,06,15,09,14,11.30
2016,06,15,09,15,11.40
2016,06,15,09,16,11.50
2016,06,15,09,17,11.60
2016,06,15,09,18,11.70
2016,06,15,09,19,11.70
2016,06,15,09,20,11.70
2016,06,15,09,21,11.60
2016,06,15,09,22,11.60
2016,06,15,09,23,11.70
2016,06,15,09,24,11.70
2016,06,15,09,25,11.80
2016,06,15,09,26,11.80
2016,06,15,09,27,11.80
2016,06,15,09,28,11.70
2016,06,15,09,29,11.70
2016,06,15,09,30,11.60
2016,06,15,09,31,11.60
2016,06,15,09,32,11.60
2016,06,15,09,33,11.70
2016,06,15,09,34,11.80
2016,06,15,09,35,11.80
2016,06,15,09,36,11.80
2016,06,15,09,37,11.80
2016,06,15,09,38,11.80
2016,06,15,09,39,11.70
2016,06,15,09,40,11.70
2016,06,15,09,41,11.80
2016,06,15,09,42,11.80
2016,06,15,09,43,11.80
2016,06,15,09,44,11.80
2016,06,15,09,45,11.80
2016,06,15,09,46,11.80
2016,06,15,09,47,11.80
2016,06,15,09,48,11.80
2016,06,15,09,49,11.90
2016,06,15,09,50,11.90
2016,06,15,09,51,11.90
2016,06,15,09,52,11.90
2016,06,15,09,53,12.10
2016,06,15,09,54,12.20
2016,06,15,09,55,12.20
2016,06,15,09,56,12.30
2016,06,15,09,57,12.30
2016,06,15,09,58,12.20
2016,06,15,09,59,12.10
2016,06,15,10,00,12.10
2016,06,15,10,01,12.10
2016,06,15,10,02,12.10
2016,06,15,10,03,12.10
2016,06,15,10,04,12.10
2016,06,15,10,05,12.10
2016,06,15,10,06,12.10
2016,06,15,10,07,12.10
2016,06,15,10,08,12.10
2016,06,15,10,09,12.00
2016,06,15,10,10,11.90
2016,06,15,10,11,12.00
2016,06,15,10,12,12.10
2016,06,15,10,13,12.10
2016,06,15,10,14,12.10
2016,06,15,10,15,12.20
2016,06,15,10,16,12.20
2016,06,15,10,17,12.30
2016,06,15,10,18,12.20
2016,06,15,10,19,12.20
2016,06,15,10,20,12.30
2016,06,15,10,21,12.30
2016,06,15,10,22,12.40
2016,06,15,10,23,12.40
2016,06,15,10,24,12.30
2016,06,15,10,25,12.20
2016,06,15,10,26,12.10
2016,06,15,10,27,12.10
2016,06,15,10,28,12.00
2016,06,15,10,29,12.10
2016,06,15,10,30,12.10
2016,06,15,10,31,12.10
2016,06,15,10,32,12.20
2016,06,15,10,33,12.10
2016,06,15,10,34,12.10
2016,06,15,10,35,12.00
2016,06,15,10,36,12.00
2016,06,15,10,37,11.90
2016,06,15,10,38,11.90
2016,06,15,10,39,11.90
2016,06,15,10,40,11.90
2016,06,15,10,41,11.90
2016,06,15,10,42,11.80
2016,06,15,10,43,11.80
2016,06,15,10,44,11.80
2016,06,15,10,45,11.70
2016,06,15,10,46,11.70
2016,06,15,10,47,11.70
2016,06,15,10,48,11.60
2016,06,15,10,49,11.60
2016,06,15,10,50,11.60
2016,06,15,10,51,11.60
2016,06,15,10,52,11.60
2016,06,15,10,53,11.60
2016,06,15,10,54,11.60
2016,06,15,10,55,11.60
2016,06,15,10,56,11.60
2016,06,15,10,57,11.60
2016,06,15,10,58,11.60
2016,06,15,10,59,11.60
2016,06,15,11,00,11.60
2016,06,15,11,01,11.70
2016,06,15,11,02,11.70
2016,06,15,11,03,11.70
2016,06,15,11,04,11.70
2016,06,15,11,05,11.70
2016,06,15,11,06,11.80
2016,06,15,11,07,11.80
2016,06,15,11,08,11.80
2016,06,15,11,09,11.90
2016,06,15,11,10,12.00
2016,06,15,11,11,12.10
2016,06,15,11,12,12.10
2016,06,15,11,13,12.20
2016,06,15,11,14,12.20
2016,06,15,11,15,12.20
2016,06,15,11,16,12.10
2016,06,15,11,17,12.10
2016,06,15,11,18,12.00
2016,06,15,11,19,11.90
2016,06,15,11,20,11.90
2016,06,15,11,21,11.90
2016,06,15,11,22,11.80
2016,06,15,11,23,11.80
2016,06,15,11,24,11.80
2016,06,15,11,25,11.80
2016,06,15,11,26,11.80
2016,06,15,11,27,11.90
2016,06,15,11,28,12.00
2016,06,15,11,29,12.10
2016,06,15,11,30,12.10
2016,06,15,11,31,12.20
2016,06,15,11,32,12.30
2016,06,15,11,33,12.30
2016,06,15,11,34,12.40
2016,06,15,11,35,12.50
2016,06,15,11,36,12.50
2016,06,15,11,37,12.60
2016,06,15,11,38,12.60
2016,06,15,11,39,12.50
2016,06,15,11,40,12.40
2016,06,15,11,41,12.40
2016,06,15,11,42,12.30
2016,06,15,11,43,12.40
2016,06,15,11,44,12.40
2016,06,15,11,45,12.40
2016,06,15,11,46,12.40
2016,06,15,11,47,12.40
2016,06,15,11,48,12.40
2016,06,15,11,49,12.40
2016,06,15,11,50,12.40
2016,06,15,11,51,12.40
2016,06,15,11,52,12.40
2016,06,15,11,53,12.40
2016,06,15,11,54,12.40
2016,06,15,11,55,12.40
2016,06,15,11,56,12.40
2016,06,15,11,57,12.30
2016,06,15,11,58,12.30
2016,06,15,11,59,12.20
2016,06,15,12,00,12.30
2016,06,15,12,01,12.30
2016,06,15,12,02,12.20
2016,06,15,12,03,12.10
2016,06,15,12,04,12.20
2016,06,15,12,05,12.20
2016,06,15,12,06,12.20
2016,06,15,12,07,12.20
2016,06,15,12,08,12.20
2016,06,15,12,09,12.20
2016,06,15,12,10,12.20
2016,06,15,12,11,12.10
2016,06,15,12,12,12.10
2016,06,15,12,13,12.10
2016,06,15,12,14,12.10
2016,06,15,12,15,12.10
2016,06,15,12,16,12.00
2016,06,15,12,17,12.00
2016,06,15,12,18,12.00
2016,06,15,12,19,12.00
2016,06,15,12,20,12.00
2016,06,15,12,21,12.10
2016,06,15,12,22,12.10
2016,06,15,12,23,12.10
2016,06,15,12,24,12.10
2016,06,15,12,25,12.10
2016,06,15,12,26,12.20
2016,06,15,12,27,12.30
2016,06,15,12,28,12.30
2016,06,15,12,29,12.20
2016,06,15,12,30,12.20
2016,06,15,12,31,12.20
2016,06,15,12,32,12.20
2016,06,15,12,33,12.20
2016,06,15,12,34,12.20
2016,06,15,12,35,12.10
2016,06,15,12,36,12.10
2016,06,15,12,37,12.00
2016,06,15,12,38,12.00
2016,06,15,12,39,12.00
2016,06,15,12,40,12.00
2016,06,15,12,41,11.90
2016,06,15,12,42,12.00
2016,06,15,12,43,12.10
2016,06,15,12,44,12.10
2016,06,15,12,45,12.10
2016,06,15,12,46,12.20
2016,06,15,12,47,12.20
2016,06,15,12,48,12.20
2016,06,15,12,49,12.10
2016,06,15,12,50,12.10
2016,06,15,12,51,12.00
2016,06,15,12,52,12.00
2016,06,15,12,53,12.00
2016,06,15,12,54,12.00
2016,06,15,12,55,12.00
2016,06,15,12,56,12.10
2016,06,15,12,57,12.10
2016,06,15,12,58,12.30
2016,06,15,12,59,12.50
2016,06,15,13,00,12.50
2016,06,15,13,01,12.50
2016,06,15,13,02,12.60
2016,06,15,13,03,12.70
2016,06,15,13,04,12.80
2016,06,15,13,05,12.80
2016,06,15,13,06,12.70
2016,06,15,13,07,12.70
2016,06,15,13,08,12.70
2016,06,15,13,09,12.60
2016,06,15,13,10,12.50
2016,06,15,13,11,12.40
2016,06,15,13,12,12.30
2016,06,15,13,13,12.30
2016,06,15,13,14,12.30
2016,06,15,13,15,12.20
2016,06,15,13,16,12.20
2016,06,15,13,17,12.20
2016,06,15,13,18,12.20
2016,06,15,13,19,12.30
2016,06,15,13,20,12.30
2016,06,15,13,21,12.40
2016,06,15,13,22,12.30
2016,06,15,13,23,12.30
2016,06,15,13,24,12.40
2016,06,15,13,25,12.30
2016,06,15,13,26,12.40
2016,06,15,13,27,12.40
2016,06,15,13,28,12.50
2016,06,15,13,29,12.50
2016,06,15,13,30,12.60
2016,06,15,13,31,12.70
2016,06,15,13,32,12.70
2016,06,15,13,33,12.60
2016,06,15,13,34,12.60
2016,06,15,13,35,12.50
2016,06,15,13,36,12.60
2016,06,15,13,37,12.70
2016,06,15,13,38,12.60
2016,06,15,13,39,12.60
2016,06,15,13,40,12.60
2016,06,15,13,41,12.70
2016,06,15,13,42,12.80
2016,06,15,13,43,12.80
2016,06,15,13,44,12.80
2016,06,15,13,45,12.90
2016,06,15,13,46,12.90
2016,06,15,13,47,13.00
2016,06,15,13,48,13.10
2016,06,15,13,49,13.10
2016,06,15,13,50,13.00
2016,06,15,13,51,13.00
2016,06,15,13,52,12.90
2016,06,15,13,53,12.80
2016,06,15,13,54,12.80
2016,06,15,13,55,12.80
2016,06,15,13,56,12.70
2016,06,15,13,57,12.70
2016,06,15,13,58,12.70
2016,06,15,13,59,12.60
2016,06,15,14,00,12.50
2016,06,15,14,01,12.50
2016,06,15,14,02,12.40
2016,06,15,14,03,12.40
2016,06,15,14,04,12.40
2016,06,15,14,05,12.40
2016,06,15,14,06,12.30
2016,06,15,14,07,12.30
2016,06,15,14,08,12.30
2016,06,15,14,09,12.20
2016,06,15,14,10,12.20
2016,06,15,14,11,12.20
2016,06,15,14,12,12.20
2016,06,15,14,13,12.20
2016,06,15,14,14,12.20
2016,06,15,14,15,12.10
2016,06,15,14,16,12.10
2016,06,15,14,17,12.20
2016,06,15,14,18,12.20
2016,06,15,14,19,12.20
2016,06,15,14,20,12.20
2016,06,15,14,21,12.20
2016,06,15,14,22,12.20
2016,06,15,14,23,12.20
2016,06,15,14,24,12.20
2016,06,15,14,25,12.20
2016,06,15,14,26,12.30
2016,06,15,14,27,12.30
2016,06,15,14,28,12.30
2016,06,15,14,29,12.30
2016,06,15,14,30,12.40
2016,06,15,14,31,12.40
2016,06,15,14,32,12.40
2016,06,15,14,33,12.40
2016,06,15,14,34,12.50
2016,06,15,14,35,12.50
2016,06,15,14,36,12.60
2016,06,15,14,37,12.60
2016,06,15,14,38,12.60
2016,06,15,14,39,12.70
2016,06,15,14,40,12.70
2016,06,15,14,41,12.70
2016,06,15,14,42,12.80
2016,06,15,14,43,12.80
2016,06,15,14,44,12.80
2016,06,15,14,45,12.80
2016,06,15,14,46,12.80
2016,06,15,14,47,12.70
2016,06,15,14,48,12.70
2016,06,15,14,49,12.60
2016,06,15,14,50,12.50
2016,06,15,14,51,12.50
2016,06,15,14,52,12.50
2016,06,15,14,53,12.40
2016,06,15,14,54,12.30
2016,06,15,14,55,12.30
2016,06,15,14,56,12.20
2016,06,15,14,57,12.20
2016,06,15,14,58,12.20
2016,06,15,14,59,12.10
2016,06,15,15,00,12.10
2016,06,15,15,01,12.00
2016,06,15,15,02,12.00
2016,06,15,15,03,12.00
2016,06,15,15,04,12.00
2016,06,15,15,05,11.90
2016,06,15,15,06,11.90
2016,06,15,15,07,11.90
2016,06,15,15,08,11.90
2016,06,15,15,09,11.80
2016,06,15,15,10,11.80
2016,06,15,15,11,11.80
2016,06,15,15,12,11.80
2016,06,15,15,13,11.80
2016,06,15,15,14,11.80
2016,06,15,15,15,11.80
2016,06,15,15,16,11.80
2016,06,15,15,17,11.80
2016,06,15,15,18,11.80
2016,06,15,15,19,11.90
2016,06,15,15,20,11.90
2016,06,15,15,21,11.90
2016,06,15,15,22,12.00
2016,06,15,15,23,12.10
2016,06,15,15,24,12.10
2016,06,15,15,25,12.20
2016,06,15,15,26,12.30
2016,06,15,15,27,12.30
2016,06,15,15,28,12.40
2016,06,15,15,29,12.50
2016,06,15,15,30,12.50
2016,06,15,15,31,12.60
2016,06,15,15,32,12.70
2016,06,15,15,33,12.70
2016,06,15,15,34,12.70
2016,06,15,15,35,12.70
2016,06,15,15,36,12.80
2016,06,15,15,37,12.80
2016,06,15,15,38,12.90
2016,06,15,15,39,12.90
2016,06,15,15,40,13.00
2016,06,15,15,41,13.10
2016,06,15,15,42,13.20
2016,06,15,15,43,13.30
2016,06,15,15,44,13.40
2016,06,15,15,45,13.40
2016,06,15,15,46,13.50
2016,06,15,15,47,13.60
2016,06,15,15,48,13.80
2016,06,15,15,49,13.90
2016,06,15,15,50,14.10
2016,06,15,15,51,14.30
2016,06,15,15,52,14.50
2016,06,15,15,53,14.70
2016,06,15,15,54,14.80
2016,06,15,15,55,15.00
2016,06,15,15,56,15.00
2016,06,15,15,57,15.00
2016,06,15,15,58,15.00
2016,06,15,15,59,15.00
2016,06,15,16,00,15.00
2016,06,15,16,01,14.90
2016,06,15,16,02,14.80
2016,06,15,16,03,14.80
2016,06,15,16,04,14.80
2016,06,15,16,05,14.70
2016,06,15,16,06,14.40
2016,06,15,16,07,14.20
2016,06,15,16,08,14.00
2016,06,15,16,09,13.90
2016,06,15,16,10,13.70
2016,06,15,16,11,13.50
2016,06,15,16,12,13.40
2016,06,15,16,13,13.30
2016,06,15,16,14,13.30
2016,06,15,16,15,13.30
2016,06,15,16,16,13.30
2016,06,15,16,17,13.30
2016,06,15,16,18,13.40
2016,06,15,16,19,13.50
2016,06,15,16,20,13.60
2016,06,15,16,21,13.70
2016,06,15,16,22,13.60
2016,06,15,16,23,13.50
2016,06,15,16,24,13.50
2016,06,15,16,25,13.40
2016,06,15,16,26,13.30
2016,06,15,16,27,13.20
2016,06,15,16,28,13.20
2016,06,15,16,29,13.20
2016,06,15,16,30,13.20
2016,06,15,16,31,13.20
2016,06,15,16,32,13.30
2016,06,15,16,33,13.30
2016,06,15,16,34,13.30
2016,06,15,16,35,13.30
2016,06,15,16,36,13.30
2016,06,15,16,37,13.30
2016,06,15,16,38,13.20
2016,06,15,16,39,13.30
2016,06,15,16,40,13.30
2016,06,15,16,41,13.30
2016,06,15,16,42,13.30
2016,06,15,16,43,13.30
2016,06,15,16,44,13.30
2016,06,15,16,45,13.40
2016,06,15,16,46,13.30
2016,06,15,16,47,13.30
2016,06,15,16,48,13.30
2016,06,15,16,49,13.30
2016,06,15,16,50,13.40
2016,06,15,16,51,13.40
2016,06,15,16,52,13.40
2016,06,15,16,53,13.40
2016,06,15,16,54,13.40
2016,06,15,16,55,13.40
2016,06,15,16,56,13.40
2016,06,15,16,57,13.40
2016,06,15,16,58,13.50
2016,06,15,16,59,13.50
2016,06,15,17,00,13.40
2016,06,15,17,01,13.40
2016,06,15,17,02,13.40
2016,06,15,17,03,13.50
2016,06,15,17,04,13.50
2016,06,15,17,05,13.50
2016,06,15,17,06,13.50
2016,06,15,17,07,13.60
2016,06,15,17,08,13.60
2016,06,15,17,09,13.70
2016,06,15,17,10,13.70
2016,06,15,17,11,13.70
2016,06,15,17,12,13.70
2016,06,15,17,13,13.70
2016,06,15,17,14,13.80
2016,06,15,17,15,13.80
2016,06,15,17,16,13.70
2016,06,15,17,17,13.70
2016,06,15,17,18,13.70
2016,06,15,17,19,13.70
2016,06,15,17,20,13.70
2016,06,15,17,21,13.70
2016,06,15,17,22,13.70
2016,06,15,17,23,13.70
2016,06,15,17,24,13.80
2016,06,15,17,25,13.80
2016,06,15,17,26,13.90
2016,06,15,17,27,13.90
2016,06,15,17,28,13.80
2016,06,15,17,29,13.80
2016,06,15,17,30,13.70
2016,06,15,17,31,13.70
2016,06,15,17,32,13.60
2016,06,15,17,33,13.70
2016,06,15,17,34,13.70
2016,06,15,17,35,13.80
2016,06,15,17,36,13.80
2016,06,15,17,37,13.80
2016,06,15,17,38,13.80